| time (UTC) | temp F | wind direction | speed MPH | gust MPH | rain 1hr in | rain 24hr in | rain mn in | humidity % | barometer mb |
| 20260509160557 | 71 | 175 | 1.0 | 10.0 | 0.00 | 0.01 | 0.00 | 41 | 1009.5 |
| 20260509155540 | 71 | 195 | 1.0 | 9.0 | 0.00 | 0.01 | 0.00 | 41 | 1009.6 |
| 20260509155010 | 71 | 206 | 1.0 | 9.0 | 0.00 | 0.01 | 0.00 | 41 | 1009.5 |
| 20260509154709 | 71 | 228 | 1.0 | 8.0 | 0.00 | 0.01 | 0.00 | 40 | 1009.5 |
| 20260509154158 | 71 | 184 | 1.0 | 8.0 | 0.00 | 0.01 | 0.00 | 40 | 1009.5 |
| 20260509153944 | 71 | 184 | 1.0 | 8.0 | 0.00 | 0.01 | 0.00 | 40 | 1009.5 |
| 20260509153353 | 70 | 185 | 1.0 | 8.0 | 0.00 | 0.01 | 0.00 | 39 | 1009.3 |
| 20260509152819 | 69 | 186 | 1.0 | 8.0 | 0.00 | 0.01 | 0.00 | 39 | 1009.6 |
| 20260509152254 | 69 | 161 | 1.0 | 9.0 | 0.00 | 0.01 | 0.00 | 39 | 1009.7 |
| 20260509151729 | 69 | 157 | 1.0 | 9.0 | 0.00 | 0.01 | 0.00 | 39 | 1010.0 |
| 20260509151201 | 69 | 253 | 0.0 | 4.0 | 0.00 | 0.01 | 0.00 | 38 | 1010.0 |
| 20260509150634 | 69 | 253 | 0.0 | 6.0 | 0.00 | 0.01 | 0.00 | 38 | 1010.2 |
| 20260509150334 | 68 | 254 | 1.0 | 6.0 | 0.00 | 0.01 | 0.00 | 37 | 1010.3 |
| 20260509145528 | 68 | 253 | 1.0 | 10.0 | 0.00 | 0.01 | 0.00 | 37 | 1010.4 |
| 20260509145000 | 68 | 218 | 1.0 | 10.0 | 0.00 | 0.01 | 0.00 | 36 | 1010.5 |
| 20260509144706 | 67 | 147 | 1.0 | 8.0 | 0.00 | 0.01 | 0.00 | 36 | 1010.5 |
| 20260509143838 | 67 | 164 | 1.0 | 9.0 | 0.00 | 0.01 | 0.00 | 35 | 1010.5 |
| 20260509143313 | 67 | 207 | 1.0 | 9.0 | 0.00 | 0.01 | 0.00 | 35 | 1010.7 |
| 20260509143215 | 66 | 170 | 2.0 | 9.0 | 0.00 | 0.01 | 0.00 | 34 | 1010.6 |
| 20260509142210 | 66 | 152 | 1.0 | 9.0 | 0.00 | 0.01 | 0.00 | 34 | 1010.7 |
| 20260509141639 | 66 | 180 | 0.0 | 5.0 | 0.00 | 0.01 | 0.00 | 33 | 1010.7 |
| 20260509141108 | 66 | 180 | 0.0 | 5.0 | 0.00 | 0.01 | 0.00 | 33 | 1010.9 |
| 20260509140532 | 66 | 257 | 0.0 | 8.0 | 0.00 | 0.01 | 0.00 | 33 | 1010.9 |
| 20260509140000 | 66 | 257 | 0.0 | 1.0 | 0.00 | 0.01 | 0.00 | 32 | 1010.8 |
| 20260509135433 | 65 | 257 | 1.0 | 9.0 | 0.00 | 0.01 | 0.00 | 32 | 1010.9 |
| 20260509134859 | 65 | 154 | 1.0 | 8.0 | 0.00 | 0.01 | 0.00 | 30 | 1010.9 |
| 20260509134249 | 65 | 198 | 1.0 | 9.0 | 0.00 | 0.01 | 0.00 | 28 | 1010.9 |
| 20260509133727 | 65 | 173 | 1.0 | 8.0 | 0.00 | 0.01 | 0.00 | 27 | 1010.9 |
| 20260509133149 | 65 | 169 | 0.0 | 7.0 | 0.00 | 0.01 | 0.00 | 26 | 1011.0 |
| 20260509132835 | 64 | 225 | 0.0 | 5.0 | 0.00 | 0.01 | 0.00 | 25 | 1010.9 |
| 20260509132048 | 64 | 182 | 1.0 | 7.0 | 0.00 | 0.01 | 0.00 | 24 | 1010.9 |
| 20260509131528 | 64 | 187 | 1.0 | 7.0 | 0.00 | 0.01 | 0.00 | 23 | 1010.8 |
| 20260509131002 | 63 | 223 | 0.0 | 6.0 | 0.00 | 0.01 | 0.00 | 21 | 1010.9 |
| 20260509130439 | 63 | 236 | 1.0 | 5.0 | 0.00 | 0.01 | 0.00 | 20 | 1010.8 |
| 20260509125909 | 63 | 172 | 0.0 | 5.0 | 0.00 | 0.01 | 0.00 | 18 | 1010.9 |
| 20260509125342 | 62 | 172 | 0.0 | 6.0 | 0.00 | 0.01 | 0.00 | 16 | 1010.9 |
| 20260509124810 | 62 | 171 | 0.0 | 6.0 | 0.00 | 0.01 | 0.00 | 15 | 1011.0 |
| 20260509124239 | 62 | 184 | 0.0 | 7.0 | 0.00 | 0.01 | 0.00 | 14 | 1011.0 |
| 20260509123709 | 61 | 191 | 0.0 | 7.0 | 0.00 | 0.01 | 0.00 | 12 | 1011.0 |
| 20260509123132 | 61 | 194 | 0.0 | 6.0 | 0.00 | 0.01 | 0.00 | 12 | 1010.9 |
| 20260509122606 | 61 | 194 | 0.0 | 6.0 | 0.00 | 0.01 | 0.00 | 10 | 1010.9 |
| 20260509122040 | 61 | 265 | 0.0 | 5.0 | 0.00 | 0.01 | 0.00 | 8 | 1010.9 |
| 20260509121517 | 60 | 267 | 0.0 | 5.0 | 0.00 | 0.01 | 0.00 | 7 | 1010.9 |
| 20260509120953 | 60 | 194 | 1.0 | 10.0 | 0.00 | 0.01 | 0.00 | 7 | 1010.9 |
| 20260509120437 | 60 | 209 | 1.0 | 10.0 | 0.00 | 0.01 | 0.00 | 5 | 1011.0 |
| 20260509115905 | 60 | 161 | 0.0 | 8.0 | 0.00 | 0.01 | 0.00 | 1 | 1010.9 |
| 20260509115335 | 60 | 160 | 0.0 | 8.0 | 0.00 | 0.01 | 0.00 | 100 | 1010.9 |
| 20260509115029 | 60 | 237 | 0.0 | 4.0 | 0.00 | 0.01 | 0.00 | 100 | 1010.9 |
| 20260509114233 | 59 | 237 | 0.0 | 8.0 | 0.00 | 0.01 | 0.00 | 100 | 1011.0 |
| 20260509113936 | 59 | 238 | 1.0 | 8.0 | 0.00 | 0.01 | 0.00 | 100 | 1011.0 |
| 20260509113146 | 59 | 165 | 0.0 | 6.0 | 0.00 | 0.01 | 0.00 | 100 | 1010.9 |
| 20260509112628 | 59 | 165 | 0.0 | 6.0 | 0.00 | 0.01 | 0.00 | 100 | 1010.9 |
| 20260509112046 | 58 | 189 | 0.0 | 3.0 | 0.00 | 0.01 | 0.00 | 100 | 1010.9 |
| 20260509111515 | 58 | 189 | 1.0 | 7.0 | 0.00 | 0.01 | 0.00 | 100 | 1010.9 |
| 20260509110943 | 58 | 189 | 1.0 | 7.0 | 0.00 | 0.01 | 0.00 | 100 | 1010.9 |
| 20260509110641 | 58 | 202 | 0.0 | 6.0 | 0.00 | 0.01 | 0.00 | 100 | 1011.0 |
| 20260509110059 | 58 | 201 | 0.0 | 6.0 | 0.00 | 0.01 | 0.00 | 100 | 1011.1 |
| 20260509105253 | 58 | 173 | 0.0 | 6.0 | 0.00 | 0.01 | 0.00 | 100 | 1011.1 |
| 20260509104943 | 57 | 174 | 0.0 | 1.0 | 0.00 | 0.01 | 0.00 | 100 | 1011.0 |
| 20260509104154 | 57 | 175 | 0.0 | 10.0 | 0.00 | 0.01 | 0.00 | 100 | 1010.9 |
| 20260509103623 | 57 | 180 | 0.0 | 5.0 | 0.00 | 0.01 | 0.00 | 100 | 1010.9 |
| 20260509103054 | 57 | 186 | 0.0 | 4.0 | 0.00 | 0.01 | 0.00 | 100 | 1010.9 |
| 20260509102521 | 57 | 186 | 0.0 | 3.0 | 0.00 | 0.01 | 0.00 | 100 | 1011.0 |
| 20260509101953 | 57 | 183 | 0.0 | 8.0 | 0.00 | 0.01 | 0.00 | 100 | 1010.9 |
| 20260509101431 | 57 | 171 | 0.0 | 5.0 | 0.00 | 0.01 | 0.00 | 100 | 1010.9 |
| 20260509100902 | 57 | 173 | 0.0 | 0.0 | 0.00 | 0.01 | 0.00 | 100 | 1010.9 |
| 20260509100349 | 57 | 173 | 0.0 | 4.0 | 0.00 | 0.01 | 0.00 | 100 | 1010.8 |
| 20260509095740 | 57 | 172 | 0.0 | 5.0 | 0.00 | 0.01 | 0.00 | 100 | 1010.9 |
| 20260509095213 | 57 | 172 | 0.0 | 5.0 | 0.00 | 0.01 | 0.00 | 100 | 1010.9 |
| 20260509094644 | 57 | 172 | 0.0 | 8.0 | 0.00 | 0.01 | 0.00 | 100 | 1010.9 |
| 20260509094127 | 57 | 173 | 0.0 | 8.0 | 0.00 | 0.01 | 0.00 | 100 | 1010.9 |
| 20260509093550 | 57 | 171 | 0.0 | 2.0 | 0.00 | 0.01 | 0.00 | 100 | 1010.8 |
| 20260509093020 | 57 | 171 | 0.0 | 2.0 | 0.00 | 0.01 | 0.00 | 100 | 1010.9 |
| 20260509092453 | 57 | 171 | 0.0 | 1.0 | 0.00 | 0.01 | 0.00 | 100 | 1010.9 |
| 20260509091927 | 57 | 173 | 0.0 | 1.0 | 0.00 | 0.01 | 0.00 | 3 | 1010.8 |
| 20260509091402 | 57 | 173 | 0.0 | 1.0 | 0.00 | 0.01 | 0.00 | 5 | 1010.8 |
| 20260509090819 | 58 | 174 | 0.0 | 0.0 | 0.00 | 0.01 | 0.00 | 7 | 1010.7 |
| 20260509090231 | 58 | 173 | 0.0 | 0.0 | 0.00 | 0.01 | 0.00 | 8 | 1010.6 |
| 20260509085658 | 58 | 174 | 0.0 | 0.0 | 0.00 | 0.01 | 0.00 | 9 | 1010.7 |
| 20260509085122 | 58 | 169 | 0.0 | 0.0 | 0.00 | 0.01 | 0.00 | 10 | 1010.6 |
| 20260509084558 | 58 | 169 | 0.0 | 0.0 | 0.00 | 0.01 | 0.00 | 10 | 1010.7 |
| 20260509084300 | 58 | 169 | 0.0 | 5.0 | 0.00 | 0.01 | 0.00 | 11 | 1010.7 |
| 20260509083450 | 58 | 185 | 0.0 | 3.0 | 0.00 | 0.01 | 0.00 | 11 | 1010.7 |
| 20260509082405 | 58 | 185 | 0.0 | 4.0 | 0.00 | 0.01 | 0.00 | 12 | 1010.7 |
| 20260509082047 | 58 | 186 | 0.0 | 10.0 | 0.00 | 0.01 | 0.00 | 12 | 1010.8 |
| 20260509081250 | 58 | 226 | 0.0 | 10.0 | 0.00 | 0.01 | 0.00 | 13 | 1010.8 |
| 20260509080725 | 58 | 220 | 0.0 | 4.0 | 0.00 | 0.01 | 0.00 | 13 | 1010.9 |
| 20260509080206 | 58 | 320 | 1.0 | 12.0 | 0.00 | 0.01 | 0.00 | 14 | 1010.9 |
| 20260509075633 | 58 | 148 | 1.0 | 12.0 | 0.00 | 0.01 | 0.00 | 14 | 1010.9 |
| 20260509075114 | 58 | 177 | 0.0 | 10.0 | 0.00 | 0.01 | 0.00 | 14 | 1010.9 |
| 20260509074814 | 58 | 187 | 0.0 | 10.0 | 0.00 | 0.01 | 0.00 | 15 | 1011.0 |
| 20260509074030 | 58 | 182 | 0.0 | 4.0 | 0.00 | 0.01 | 0.00 | 15 | 1011.1 |
| 20260509073501 | 58 | 182 | 0.0 | 7.0 | 0.00 | 0.01 | 0.00 | 15 | 1011.2 |
| 20260509072943 | 58 | 182 | 0.0 | 7.0 | 0.00 | 0.01 | 0.00 | 16 | 1011.1 |
| 20260509072419 | 58 | 163 | 0.0 | 3.0 | 0.00 | 0.01 | 0.00 | 16 | 1011.2 |
| 20260509072114 | 58 | 214 | 0.0 | 3.0 | 0.00 | 0.01 | 0.00 | 16 | 1011.2 |
| 20260509071328 | 58 | 167 | 0.0 | 3.0 | 0.00 | 0.01 | 0.00 | 16 | 1011.3 |
| 20260509070809 | 58 | 293 | 1.0 | 7.0 | 0.00 | 0.01 | 0.00 | 16 | 1011.3 |
| 20260509070229 | 58 | 166 | 1.0 | 3.0 | 0.00 | 0.01 | 0.00 | 16 | 1011.2 |
| 20260509065704 | 58 | 149 | 1.0 | 13.0 | 0.00 | 0.01 | 0.00 | 15 | 1011.2 |
| 20260509065115 | 58 | 187 | 0.0 | 0.0 | 0.00 | 0.01 | 0.00 | 13 | 1011.1 |
| 20260509064757 | 57 | 175 | 0.0 | 5.0 | 0.00 | 0.01 | 0.00 | 12 | 1011.2 |
| 20260509064014 | 57 | 174 | 0.0 | 2.0 | 0.00 | 0.01 | 0.00 | 11 | 1011.3 |
| 20260509063438 | 57 | 173 | 0.0 | 2.0 | 0.00 | 0.01 | 0.00 | 10 | 1011.4 |
| 20260509063357 | 57 | 172 | 0.0 | 4.0 | 0.00 | 0.01 | 0.00 | 9 | 1011.5 |
| 20260509062345 | 57 | 172 | 0.0 | 4.0 | 0.00 | 0.01 | 0.00 | 8 | 1011.5 |
| 20260509061846 | 57 | 172 | 0.0 | 2.0 | 0.00 | 0.01 | 0.00 | 8 | 1011.5 |
| 20260509061236 | 57 | 172 | 0.0 | 2.0 | 0.00 | 0.01 | 0.00 | 8 | 1011.5 |
| 20260509060655 | 57 | 172 | 0.0 | 4.0 | 0.00 | 0.01 | 0.00 | 7 | 1011.5 |
| 20260509060127 | 57 | 172 | 0.0 | 4.0 | 0.00 | 0.01 | 0.00 | 7 | 1011.4 |
| 20260509055855 | 57 | 173 | 0.0 | 0.0 | 0.00 | 0.01 | 0.00 | 7 | 1011.4 |
| 20260509055603 | 57 | 173 | 0.0 | 0.0 | 0.00 | 0.01 | 0.00 | 7 | 1011.5 |
| 20260509054451 | 56 | 173 | 0.0 | 5.0 | 0.00 | 0.01 | 0.00 | 8 | 1011.4 |
| 20260509053911 | 56 | 173 | 0.0 | 4.0 | 0.00 | 0.01 | 0.00 | 10 | 1011.4 |
| 20260509053403 | 56 | 173 | 0.0 | 4.0 | 0.00 | 0.01 | 0.00 | 11 | 1011.4 |
| 20260509052826 | 56 | 173 | 0.0 | 7.0 | 0.00 | 0.01 | 0.00 | 13 | 1011.4 |
| 20260509052254 | 56 | 174 | 0.0 | 7.0 | 0.00 | 0.01 | 0.00 | 15 | 1011.4 |
| 20260509051949 | 56 | 173 | 0.0 | 0.0 | 0.00 | 0.01 | 0.00 | 17 | 1011.5 |
| 20260509051155 | 56 | 173 | 0.0 | 4.0 | 0.00 | 0.01 | 0.00 | 19 | 1011.6 |
| 20260509050614 | 56 | 174 | 0.0 | 3.0 | 0.00 | 0.01 | 0.00 | 21 | 1011.5 |
| 20260509050058 | 56 | 174 | 0.0 | 3.0 | 0.00 | 0.01 | 0.00 | 23 | 1011.5 |
| 20260509045517 | 56 | 173 | 0.0 | 2.0 | 0.00 | 0.01 | 0.00 | 24 | 1011.4 |
| 20260509044949 | 56 | 173 | 0.0 | 5.0 | 0.00 | 0.01 | 0.00 | 26 | 1011.5 |
| 20260509044435 | 56 | 173 | 0.0 | 5.0 | 0.00 | 0.01 | 0.00 | 27 | 1011.5 |
| 20260509043905 | 56 | 175 | 0.0 | 4.0 | 0.00 | 0.01 | 0.00 | 28 | 1011.6 |
| 20260509043334 | 56 | 175 | 0.0 | 2.0 | 0.00 | 0.01 | 0.00 | 30 | 1011.7 |
| 20260509042750 | 56 | 175 | 0.0 | 2.0 | 0.00 | 0.01 | 0.00 | 31 | 1011.8 |
| 20260509042228 | 56 | 175 | 0.0 | 5.0 | 0.00 | 0.01 | 0.00 | 33 | 1011.8 |
| 20260509041920 | 56 | 175 | 0.0 | 5.0 | 0.00 | 0.01 | 0.00 | 34 | 1011.9 |
| 20260509041405 | 56 | 173 | 0.0 | 3.0 | 0.00 | 0.01 | 0.00 | 36 | 1011.9 |
| 20260509040609 | 56 | 173 | 0.0 | 1.0 | 0.00 | 0.01 | 0.00 | 38 | 1012.0 |
| 20260509040059 | 57 | 173 | 0.0 | 0.0 | 0.00 | 0.01 | 0.00 | 40 | 1012.0 |
| 20260509035742 | 57 | 173 | 0.0 | 2.0 | 0.00 | 0.01 | 0.01 | 41 | 1012.0 |
| 20260509034951 | 57 | 173 | 0.0 | 2.0 | 0.00 | 0.01 | 0.01 | 43 | 1012.0 |
| 20260509034425 | 57 | 173 | 0.0 | 0.0 | 0.00 | 0.01 | 0.01 | 44 | 1012.1 |
| 20260509033900 | 57 | 173 | 0.0 | 4.0 | 0.00 | 0.01 | 0.01 | 46 | 1012.1 |
| 20260509033329 | 57 | 173 | 0.0 | 1.0 | 0.00 | 0.01 | 0.01 | 47 | 1012.1 |
| 20260509033240 | 57 | 180 | 0.0 | 4.0 | 0.00 | 0.01 | 0.01 | 49 | 1012.0 |
| 20260509032228 | 57 | 178 | 0.0 | 2.0 | 0.00 | 0.01 | 0.01 | 51 | 1012.1 |
| 20260509031700 | 57 | 178 | 0.0 | 2.0 | 0.00 | 0.01 | 0.01 | 52 | 1012.1 |
| 20260509031129 | 58 | 179 | 0.0 | 2.0 | 0.00 | 0.01 | 0.01 | 53 | 1012.1 |
| 20260509030601 | 58 | 179 | 0.0 | 2.0 | 0.00 | 0.01 | 0.01 | 54 | 1012.1 |
| 20260509030049 | 58 | 179 | 0.0 | 0.0 | 0.00 | 0.01 | 0.01 | 54 | 1012.2 |
| 20260509025507 | 58 | 179 | 0.0 | 5.0 | 0.00 | 0.01 | 0.01 | 55 | 1012.2 |
| 20260509024934 | 58 | 179 | 0.0 | 5.0 | 0.00 | 0.01 | 0.01 | 55 | 1012.1 |
| 20260509024411 | 58 | 180 | 0.0 | 3.0 | 0.00 | 0.01 | 0.01 | 55 | 1012.0 |
| 20260509023843 | 58 | 180 | 0.0 | 3.0 | 0.00 | 0.01 | 0.01 | 55 | 1012.0 |
| 20260509023319 | 58 | 178 | 0.0 | 2.0 | 0.00 | 0.01 | 0.01 | 55 | 1012.1 |
| 20260509022757 | 58 | 184 | 0.0 | 0.0 | 0.00 | 0.01 | 0.01 | 55 | 1012.1 |
| 20260509022228 | 58 | 188 | 0.0 | 6.0 | 0.00 | 0.01 | 0.01 | 55 | 1012.1 |
| 20260509021705 | 58 | 190 | 0.0 | 3.0 | 0.00 | 0.01 | 0.01 | 55 | 1012.1 |
| 20260509021404 | 58 | 190 | 0.0 | 3.0 | 0.00 | 0.01 | 0.01 | 55 | 1012.1 |
| 20260509020609 | 58 | 190 | 0.0 | 4.0 | 0.00 | 0.01 | 0.01 | 55 | 1012.1 |
| 20260509020316 | 58 | 190 | 0.0 | 4.0 | 0.00 | 0.01 | 0.01 | 54 | 1012.1 |
| 20260509015454 | 58 | 191 | 0.0 | 4.0 | 0.00 | 0.01 | 0.01 | 54 | 1012.1 |
| 20260509014927 | 58 | 191 | 0.0 | 4.0 | 0.00 | 0.01 | 0.01 | 54 | 1012.1 |
| 20260509014625 | 58 | 196 | 0.0 | 3.0 | 0.00 | 0.01 | 0.01 | 54 | 1012.1 |
| 20260509013827 | 59 | 196 | 0.0 | 4.0 | 0.00 | 0.01 | 0.01 | 54 | 1012.0 |
| 20260509013304 | 59 | 196 | 0.0 | 4.0 | 0.00 | 0.01 | 0.01 | 53 | 1011.9 |
| 20260509012738 | 59 | 197 | 0.0 | 5.0 | 0.00 | 0.01 | 0.01 | 53 | 1011.8 |
| 20260509012218 | 59 | 197 | 0.0 | 5.0 | 0.00 | 0.01 | 0.01 | 53 | 1011.7 |
| 20260509011918 | 59 | 197 | 0.0 | 2.0 | 0.00 | 0.01 | 0.01 | 53 | 1011.7 |
| 20260509011128 | 60 | 197 | 0.0 | 4.0 | 0.00 | 0.01 | 0.01 | 53 | 1011.6 |
| 20260509010607 | 60 | 197 | 0.0 | 4.0 | 0.00 | 0.01 | 0.01 | 53 | 1011.6 |
| 20260509010059 | 60 | 197 | 0.0 | 4.0 | 0.00 | 0.01 | 0.01 | 52 | 1011.6 |
| 20260509005520 | 60 | 197 | 0.0 | 4.0 | 0.00 | 0.01 | 0.01 | 52 | 1011.5 |
| 20260509004944 | 60 | 197 | 0.0 | 4.0 | 0.00 | 0.01 | 0.01 | 52 | 1011.5 |
| 20260509004422 | 60 | 230 | 0.0 | 4.0 | 0.00 | 0.01 | 0.01 | 52 | 1011.4 |
| 20260509003900 | 60 | 190 | 0.0 | 2.0 | 0.00 | 0.01 | 0.01 | 52 | 1011.4 |
| 20260509003613 | 60 | 190 | 0.0 | 0.0 | 0.00 | 0.01 | 0.01 | 51 | 1011.3 |
| 20260509003435 | 60 | 190 | 0.0 | 0.0 | 0.00 | 0.01 | 0.01 | 51 | 1011.3 |
| 20260509003019 | 61 | 190 | 0.0 | 3.0 | 0.00 | 0.01 | 0.01 | 52 | 1011.4 |
| 20260509002231 | 61 | 190 | 0.0 | 5.0 | 0.00 | 0.01 | 0.01 | 51 | 1011.4 |
| 20260509001731 | 61 | 148 | 0.0 | 5.0 | 0.00 | 0.01 | 0.01 | 51 | 1011.3 |
| 20260509001133 | 61 | 165 | 0.0 | 2.0 | 0.00 | 0.01 | 0.01 | 51 | 1011.2 |
| 20260509000536 | 61 | 165 | 0.0 | 3.0 | 0.00 | 0.01 | 0.01 | 51 | 1011.0 |
| 20260509000016 | 62 | 165 | 0.0 | 3.0 | 0.00 | 0.01 | 0.01 | 51 | 1011.0 |
| 20260508235452 | 62 | 165 | 0.0 | 0.0 | 0.00 | 0.01 | 0.01 | 51 | 1011.0 |
| 20260508234931 | 62 | 165 | 0.0 | 4.0 | 0.00 | 0.01 | 0.01 | 51 | 1011.1 |
| 20260508234406 | 62 | 165 | 0.0 | 4.0 | 0.00 | 0.01 | 0.01 | 51 | 1011.1 |
| 20260508233845 | 62 | 165 | 0.0 | 0.0 | 0.00 | 0.01 | 0.01 | 51 | 1011.0 |
| 20260508233323 | 62 | 165 | 0.0 | 3.0 | 0.00 | 0.01 | 0.01 | 50 | 1011.0 |
| 20260508232753 | 62 | 165 | 0.0 | 3.0 | 0.00 | 0.01 | 0.01 | 50 | 1010.8 |
| 20260508232219 | 62 | 165 | 0.0 | 3.0 | 0.00 | 0.01 | 0.01 | 51 | 1010.8 |
| 20260508231902 | 62 | 165 | 0.0 | 3.0 | 0.00 | 0.01 | 0.01 | 51 | 1010.8 |
| 20260508231120 | 62 | 165 | 0.0 | 0.0 | 0.00 | 0.01 | 0.01 | 51 | 1010.9 |
| 20260508230820 | 62 | 165 | 0.0 | 5.0 | 0.00 | 0.01 | 0.01 | 52 | 1010.8 |
| 20260508230051 | 62 | 165 | 0.0 | 5.0 | 0.00 | 0.01 | 0.01 | 52 | 1010.8 |
| 20260508225502 | 62 | 157 | 0.0 | 4.0 | 0.00 | 0.01 | 0.01 | 54 | 1010.8 |
| 20260508224929 | 62 | 160 | 0.0 | 3.0 | 0.00 | 0.01 | 0.01 | 55 | 1010.8 |
| 20260508224406 | 62 | 159 | 0.0 | 5.0 | 0.00 | 0.01 | 0.01 | 56 | 1010.8 |
| 20260508223835 | 62 | 165 | 0.0 | 5.0 | 0.00 | 0.01 | 0.01 | 57 | 1010.9 |
| 20260508223802 | 62 | 142 | 0.0 | 4.0 | 0.00 | 0.01 | 0.01 | 57 | 1011.0 |
| 20260508223659 | 62 | 141 | 1.0 | 9.0 | 0.00 | 0.01 | 0.01 | 58 | 1011.1 |
| 20260508222151 | 62 | 140 | 1.0 | 11.0 | 0.00 | 0.01 | 0.01 | 58 | 1011.1 |
| 20260508221637 | 62 | 152 | 2.0 | 11.0 | 0.00 | 0.01 | 0.01 | 57 | 1011.0 |
| 20260508221054 | 62 | 166 | 2.0 | 6.0 | 0.00 | 0.01 | 0.01 | 57 | 1011.1 |
| 20260508220528 | 62 | 176 | 2.0 | 12.0 | 0.00 | 0.01 | 0.01 | 55 | 1011.0 |
| 20260508215954 | 63 | 178 | 1.0 | 9.0 | 0.00 | 0.01 | 0.01 | 55 | 1011.0 |
| 20260508215427 | 63 | 155 | 1.0 | 9.0 | 0.00 | 0.01 | 0.01 | 54 | 1011.0 |
| 20260508214310 | 63 | 154 | 2.0 | 12.0 | 0.00 | 0.01 | 0.01 | 53 | 1011.0 |
| 20260508213732 | 63 | 214 | 2.0 | 14.0 | 0.00 | 0.01 | 0.01 | 51 | 1011.2 |
| 20260508213647 | 64 | 194 | 2.0 | 14.0 | 0.00 | 0.01 | 0.01 | 52 | 1011.1 |
| 20260508212618 | 64 | 166 | 2.0 | 13.0 | 0.00 | 0.01 | 0.01 | 52 | 1011.1 |
| 20260508212143 | 64 | 192 | 2.0 | 13.0 | 0.00 | 0.01 | 0.01 | 51 | 1011.1 |
| 20260508211836 | 65 | 202 | 1.0 | 9.0 | 0.00 | 0.01 | 0.01 | 51 | 1011.0 |
| 20260508211127 | 66 | 138 | 2.0 | 13.0 | 0.00 | 0.01 | 0.01 | 51 | 1011.2 |
| 20260508211058 | 65 | 176 | 2.0 | 13.0 | 0.00 | 0.01 | 0.01 | 52 | 1011.1 |
| 20260508205858 | 66 | 140 | 2.0 | 6.0 | 0.00 | 0.01 | 0.01 | 50 | 1011.2 |
| 20260508205222 | 66 | 115 | 2.0 | 10.0 | 0.00 | 0.01 | 0.01 | 50 | 1011.3 |
| 20260508204642 | 67 | 158 | 1.0 | 8.0 | 0.00 | 0.02 | 0.01 | 50 | 1011.2 |
| 20260508204158 | 67 | 170 | 1.0 | 8.0 | 0.00 | 0.02 | 0.01 | 49 | 1011.3 |
| 20260508203537 | 67 | 155 | 2.0 | 9.0 | 0.00 | 0.02 | 0.01 | 49 | 1011.4 |
| 20260508203355 | 67 | 156 | 2.0 | 9.0 | 0.00 | 0.02 | 0.01 | 47 | 1011.4 |
| 20260508202458 | 68 | 186 | 2.0 | 13.0 | 0.00 | 0.02 | 0.01 | 47 | 1011.6 |
| 20260508202107 | 70 | 114 | 1.0 | 7.0 | 0.00 | 0.02 | 0.01 | 47 | 1011.5 |
| 20260508201831 | 69 | 140 | 2.0 | 13.0 | 0.00 | 0.02 | 0.01 | 45 | 1011.4 |
| 20260508200659 | 71 | 160 | 1.0 | 7.0 | 0.00 | 0.02 | 0.01 | 45 | 1011.5 |
| 20260508200116 | 71 | 155 | 0.0 | 5.0 | 0.00 | 0.02 | 0.01 | 44 | 1011.4 |
| 20260508195518 | 71 | 157 | 0.0 | 8.0 | 0.00 | 0.02 | 0.01 | 43 | 1011.6 |
| 20260508195225 | 70 | 157 | 1.0 | 1.0 | 0.00 | 0.02 | 0.01 | 46 | 1011.8 |
| 20260508194642 | 70 | 136 | 1.0 | 8.0 | 0.00 | 0.02 | 0.01 | 47 | 1011.7 |
| 20260508193823 | 69 | 173 | 1.0 | 9.0 | 0.00 | 0.02 | 0.01 | 46 | 1011.9 |
| 20260508193245 | 70 | 192 | 1.0 | 9.0 | 0.00 | 0.02 | 0.01 | 46 | 1011.9 |
| 20260508192728 | 70 | 158 | 1.0 | 6.0 | 0.00 | 0.03 | 0.01 | 42 | 1012.0 |
| 20260508192600 | 71 | 227 | 1.0 | 8.0 | 0.00 | 0.03 | 0.01 | 34 | 1012.1 |
| 20260508191532 | 71 | 240 | 2.0 | 9.0 | 0.00 | 0.03 | 0.01 | 34 | 1012.2 |
| 20260508190944 | 71 | 265 | 1.0 | 9.0 | 0.00 | 0.04 | 0.01 | 34 | 1012.1 |
| 20260508190425 | 71 | 346 | 1.0 | 7.0 | 0.00 | 0.04 | 0.01 | 34 | 1012.3 |
| 20260508190158 | 71 | 200 | 1.0 | 9.0 | 0.00 | 0.04 | 0.01 | 35 | 1012.5 |
| 20260508185940 | 71 | 200 | 1.0 | 9.0 | 0.00 | 0.04 | 0.01 | 35 | 1012.5 |
| 20260508185325 | 71 | 196 | 1.0 | 9.0 | 0.00 | 0.04 | 0.01 | 35 | 1012.5 |
| 20260508184751 | 71 | 181 | 2.0 | 3.0 | 0.00 | 0.04 | 0.01 | 34 | 1012.5 |
| 20260508184140 | 70 | 236 | 2.0 | 9.0 | 0.00 | 0.04 | 0.01 | 35 | 1012.5 |
| 20260508183839 | 70 | 258 | 1.0 | 12.0 | 0.00 | 0.04 | 0.01 | 35 | 1012.6 |
| 20260508183624 | 70 | 258 | 1.0 | 12.0 | 0.00 | 0.04 | 0.01 | 35 | 1012.6 |
| 20260508183007 | 70 | 215 | 1.0 | 12.0 | 0.00 | 0.04 | 0.01 | 36 | 1012.6 |
| 20260508182530 | 70 | 279 | 1.0 | 1.0 | 0.01 | 0.04 | 0.01 | 35 | 1012.7 |
| 20260508181900 | 69 | 163 | 2.0 | 8.0 | 0.01 | 0.04 | 0.01 | 37 | 1012.9 |
| 20260508181333 | 70 | 208 | 1.0 | 11.0 | 0.01 | 0.04 | 0.01 | 37 | 1012.9 |
| 20260508180703 | 69 | 222 | 1.0 | 11.0 | 0.01 | 0.04 | 0.01 | 39 | 1012.8 |
| 20260508180233 | 68 | 223 | 2.0 | 12.0 | 0.01 | 0.04 | 0.01 | 38 | 1012.9 |
| 20260508175542 | 68 | 207 | 2.0 | 12.0 | 0.01 | 0.04 | 0.01 | 38 | 1012.8 |
| 20260508175011 | 68 | 250 | 2.0 | 9.0 | 0.01 | 0.04 | 0.01 | 37 | 1012.9 |
| 20260508174439 | 68 | 154 | 1.0 | 9.0 | 0.01 | 0.04 | 0.01 | 37 | 1012.9 |
| 20260508173845 | 67 | 276 | 1.0 | 7.0 | 0.01 | 0.04 | 0.01 | 35 | 1013.0 |
| 20260508173224 | 67 | 153 | 2.0 | 7.0 | 0.01 | 0.04 | 0.01 | 35 | 1013.0 |
| 20260508172643 | 67 | 182 | 1.0 | 11.0 | 0.01 | 0.04 | 0.01 | 35 | 1013.1 |
| 20260508172121 | 66 | 167 | 1.0 | 9.0 | 0.00 | 0.03 | 0.00 | 36 | 1013.1 |
| 20260508171859 | 66 | 167 | 1.0 | 9.0 | 0.00 | 0.03 | 0.00 | 37 | 1013.3 |
| 20260508171043 | 65 | 188 | 1.0 | 8.0 | 0.00 | 0.03 | 0.00 | 47 | 1013.3 |
| 20260508170749 | 65 | 111 | 1.0 | 8.0 | 0.00 | 0.03 | 0.00 | 47 | 1013.5 |
| 20260508165942 | 65 | 208 | 1.0 | 12.0 | 0.00 | 0.03 | 0.00 | 49 | 1013.4 |
| 20260508165453 | 64 | 144 | 1.0 | 12.0 | 0.00 | 0.03 | 0.00 | 50 | 1013.5 |
| 20260508165138 | 64 | 189 | 2.0 | 9.0 | 0.00 | 0.03 | 0.00 | 50 | 1013.6 |
| 20260508165117 | 63 | 155 | 1.0 | 9.0 | 0.00 | 0.03 | 0.00 | 49 | 1013.7 |
| 20260508163857 | 63 | 173 | 1.0 | 9.0 | 0.00 | 0.03 | 0.00 | 46 | 1013.7 |
| 20260508163210 | 63 | 178 | 1.0 | 10.0 | 0.00 | 0.03 | 0.00 | 46 | 1013.8 |
| 20260508162540 | 63 | 235 | 1.0 | 10.0 | 0.00 | 0.03 | 0.00 | 44 | 1013.9 |
| 20260508162444 | 63 | 151 | 2.0 | 10.0 | 0.00 | 0.03 | 0.00 | 40 | 1013.8 |
| 20260508162342 | 63 | 108 | 1.0 | 9.0 | 0.00 | 0.03 | 0.00 | 41 | 1014.0 |
| 20260508161818 | 63 | 151 | 2.0 | 10.0 | 0.00 | 0.03 | 0.00 | 40 | 1013.8 |
| 20260508161511 | 63 | 151 | 2.0 | 10.0 | 0.00 | 0.03 | 0.00 | 40 | 1013.8 |
| 20260508160848 | 64 | 152 | 1.0 | 10.0 | 0.00 | 0.03 | 0.00 | 40 | 1014.0 |